User: anonymous   Login
Location: Vancouver
(49.2500°N, 123.1330°W)
Time: 02:15:34
(UTC-07:00)
Language:

Transit 2A Rocket - Orbit

View from above orbital plane
View from above orbital plane
View from above satellite
View from above satellite

Ground track
Ground track

The orbit data is extracted from the following two-line orbital elements,

1    47U 60007C   17083.95503247 +.00000011 +00000-0 +27570-4 0  9995
2    47 066.6653 071.0715 0220424 086.6676 275.9615 14.41902700964494
Epoch (UTC): 24 March 2017 22:55:14
Eccentricity: 0.0220424
inclination: 66.6653°
perigee height: 595 km
apogee height: 909 km
right ascension of ascending node: 71.0715°
argument of perigee: 86.6676°
revolutions per day: 14.41902700
mean anomaly at epoch: 275.9615°
orbit number at epoch: 96449

The dashed part of the orbit path shows where the satellite is in the earth's shadow,  

DLR